Location: Tarnow
(50.0031°N, 20.9833°E)
Time: 20:39:31
(UTC+01:00)

ISS - Visible Passes

Search period start: 18 January 2018 00:00
Search period end: 28 January 2018 00:00
Orbit: 402 x 407 km, 51.6° (Epoch: 18 January)

Date Brightness Start Highest point End Pass type
(mag) Time Alt. Az. Time Alt. Az. Time Alt. Az.
25 Jan -1.3 18:13:04 10° S 18:13:31 12° SSE 18:13:31 12° SSE visible
26 Jan -1.3 18:55:25 10° SW 18:56:18 17° SSW 18:56:18 17° SSW visible
27 Jan -2.5 18:03:30 10° SSW 18:06:14 25° SE 18:06:18 25° SE visible
